Regional Weather Roundup
Issued by NWS San Diego, CA

Home | Current Version | Previous Version | Text Only | Print | Product List | Glossary On
Versions: 1 2 3 4 5 6 7 8 9 10 11 12 13 14 15 16 17 18 19 20 21 22 23 24 25 26 27 28 29 30 31 32 33 34 35 36 37 38 39 40 41 42 43 44 45 46 47 48 49 50
000
ASUS46 KSGX 142311
RWRSGX

SAN DIEGO HOURLY WEATHER ROUNDUP
NATIONAL WEATHER SERVICE SAN DIEGO CA
300 PM PST SUN FEB 14 2016

NOTE: "FAIR" INDICATES FEW OR NO CLOUDS BELOW 12,000 FEET WITH NO
SIGNIFICANT WEATHER AND/OR OBSTRUCTIONS TO VISIBILITY.

CAZ042-043-060-061-PZZ750-775-150000-

GREATER SAN DIEGO AREA

CITY           SKY/WX    TMP DP  RH WIND       PRES   REMARKS
LINDBERGH FLD  MOSUNNY   70  54  56 W7        29.97F
POINT LOMA       N/A     63  53  70 NW12        N/A
NATIONAL CITY    N/A     72  54  52 SW2       29.96F
CHULA VISTA      N/A     76  49  39 W8        29.88F
IMPERIAL BEACH SUNNY     69  53  56 W7        29.97F
BROWN FIELD    SUNNY     76  39  26 W9        29.97S
MIRAMAR MCAS   MOSUNNY   78  49  35 NW7       29.96F
MONTGOMERY FLD SUNNY     76  46  34 NW8       29.96F

$$

NORTH SAN DIEGO COUNTY

CITY           SKY/WX    TMP DP  RH WIND       PRES   REMARKS
CAMP PENDLETON SUNNY     75  43  31 S10       29.94F HAZE
OCEANSIDE AP   SUNNY     71  44  37 W10       29.95F HAZE
OCEANSIDE HBR    N/A     61  58  88 W3        29.99F
VISTA            N/A     78  44  30 W3        29.95F
CARLSBAD       SUNNY     71  46  40 W6        29.96F
DEL MAR          N/A     67  54  61 CALM      29.99F
FALLBROOK        N/A     80  50  34 S6        29.95F
ESCONDIDO        N/A     80  47  31 CALM      29.96F
SAN MARCOS       N/A     81  47  30 W3        29.95F
POWAY            N/A     83  50  31 SW3       29.97F

$$

EAST SAN DIEGO COUNTY

CITY           SKY/WX    TMP DP  RH WIND       PRES   REMARKS
RAMONA         SUNNY     81  38  21 NW7       29.99F
SANTEE LAKES     N/A     84  50  30 CALM      29.94F
LA MESA          N/A     81  48  31 NW10      29.90F
JAMUL            N/A     82  41  23 NW7       29.98S
DESCANSO N       N/A     77  32  19 CALM      29.92S
MT. LAGUNA OBS   N/A     59  10  14 E7        29.74F
CAMPO            N/A     79  19  10 NE17G24   30.00F

$$

ORANGE COUNTY AND THE LOS ANGELES BASIN

CITY           SKY/WX    TMP DP  RH WIND       PRES   REMARKS
JOHN WAYNE AP  PTSUNNY   71  54  54 S8        29.96F HAZE
LAGUNA BEACH     N/A     60  57  89 S3        29.93F
LAKE FOREST FR   N/A     81  44  26 W3        29.85F
HUNTINGTON BCH   N/A     67  58  72 SW1       29.98F
LOS ALAMITOS   PTSUNNY   73  56  54 S6        29.95F HAZE
FULLERTON      MOSUNNY   79  53  40 SW6       29.94F HAZE
LONG BEACH     MOSUNNY   78  50  37 W5        29.95F
L.A. AP        PTSUNNY   67  50  54 W13G54    29.97F
L.A. DOWNTOWN  MOSUNNY   77  48  35 W3        29.95F

$$

THE INLAND EMPIRE

CITY           SKY/WX    TMP DP  RH WIND       PRES   REMARKS
CORONA         MOSUNNY   86  24  10 NE22G28   29.95F
CHINO          MOSUNNY   88  21   8 VRB7G16   29.96F
ONTARIO        PTSUNNY   87  17   7 NE15G26   29.96F
SAN BERNARDINO PTSUNNY   82  18   9 N23       29.98F
RIVERSIDE AP   PTSUNNY   86  23  10 N12G24    29.98S
MORENO VALLEY    N/A     84  32  15 W8        28.12S
MARCH ARB      PTSUNNY   84  22  10 N9        30.00F
HORSETHIEF CYN   N/A     83  16   8 E12       30.01F
PERRIS           N/A     83  25  12 W3        30.03F
HEMET EAST       N/A     80  23  12 SW3       29.87F
FRENCH VALLEY  FAIR      82  21  10 CALM      29.99F
TEMECULA         N/A     86  28  12 SW5       29.89F

$$

SAN BERNARDINO AND RIVERSIDE COUNTY MOUNTAINS

CITY           SKY/WX    TMP DP  RH WIND       PRES   REMARKS
BIG BEAR AP    PTSUNNY   52   9  17 E9G16     30.29R
PINE COVE        N/A     63  20  19 CALM      30.02F

$$

SOUTHERN DESERT INCLUDING THE COACHELLA VALLEY

CITY           SKY/WX    TMP DP  RH WIND       PRES   REMARKS
PALM SPRINGS   PTSUNNY   89  16   7 N14       29.99F
THOUSAND PALMS   N/A     89  14   6 N7        29.96F
PALM DESERT      N/A     89  17   7 NE3       27.77F
THERMAL        MOSUNNY   90  21   8 N17       29.93F
BLYTHE         MOSUNNY   85  17   8 N20       29.96F
IMPERIAL AP    SUNNY     88  22   9 NW8       29.94S
EL CENTRO NAS  SUNNY     90  13   6 N9        29.97S
YUMA AZ        SUNNY     88  10   5 N17G23    29.94
MEXICALI       SUNNY     88  18   7 NW14      29.94F

$$

UPPER DESERT

CITY           SKY/WX    TMP DP  RH WIND       PRES   REMARKS
VICTORVILLE AP CLOUDY    73  19  13 NE9       30.15F
HESPERIA         N/A     71  21  15 CALM      30.24F
APPLE VALLEY     N/A     73  18  12 N3        30.12S
PALMDALE       PTSUNNY   75  25  15 NE15      30.14F
LANCASTER      PTSUNNY   75  27  17 NE13      30.14F
EDWARDS AFB    PTSUNNY   74  14  10 E14       30.11F
DAGGETT        PTSUNNY   79  16   9 N14       30.11F
29 PALMS N     CLOUDY    76  23  14 N21G29    30.14F
NEEDLES        CLOUDY    79  17  10 NE15      30.01F

$$

REGIONAL REPORTS

CITY           SKY/WX    TMP DP  RH WIND       PRES   REMARKS
SANTA BARBARA  SUNNY     74  47  38 S3        29.97F
SANDBERG       MOSUNNY   69  36  29 N8G22     30.21F
LAS VEGAS NV   PTSUNNY   74  14  10 N17       30.05F
PHOENIX AZ     PTSUNNY   81  24  12 W7        29.91F
TIJUANA        MOSUNNY   77  39  25 W10       29.99S
ENSENADA NW      N/A     67  32  27 W2        29.94F

$$

OFFSHORE ISLANDS

CITY           SKY/WX    TMP DP  RH WIND       PRES   REMARKS
CATALINA ARPT  SUNNY     76  30  18 N8        30.03F
SAN NICOLAS IS SUNNY    N/A N/A N/A NW13      30.00F

$$

MARINE AND OFFSHORE BUOY REPORTS

STATION/POSITION SKY/WX   TEMP    WIND        PRES    SWELL
                          AIR SEA DIR/SP/G            HT/PER/DIR
                          (F)     (DEG/KT/KT) (MB)    (FT/S/D)
TANNER BANKS               61 60  330/ 12/ 14 1015.4F  10/310/15
S CLEMENTE BASIN           58 62  330/  6/  8 1014.9F   8/290/15
SAN NICOLAS IS.               58                N/A     8/290/15
SO. S. ROSA ISLA           61 59              1014.8F
W. S. BARBARA CH           60 57  330/ 23/ 29 1015.5F  10/280/15
M. S. BARBARA CH           64 59   CALM  /  4 1015.4F
S. MONICA BASIN            61 63  270/  6/  8 1015.1F   5/260/15
S PEDRO CHANNEL               62                N/A     3/250/14
DANA POINT                    61                N/A     3/220/14
CMP PENDLETON NS              61                N/A     3/240/14
OCEANSIDE OFFSHR              62                N/A     3/270/11
TORREY PINES OTR              62                N/A     5/270/15
LA JOLLA 1                 61 62              1015.5F
SAN DIEGO BAY                 62              1015.3F
POINT LOMA SOUTH              62                N/A     7/260/15

$$




USA.gov is the U.S. government's official web portal to all federal, state and local government web resources and services.